GW6383 Weather Reports


time (UTC)temp
F
wind
direction
speed
knots
gust
knots
rain 1hr
in
rain 24hr
in
rain mn
in
humidity
%
barometer
mb
20260510180155 65 18 0.9 1.7 0.00 0.04 0.04 38 1023.0
20260510175650 65 50 2.6 2.6 0.00 0.04 0.04 36 1022.9
20260510175146 64 186 0.9 0.9 0.00 0.04 0.04 40 1023.2
20260510174644 64 182 0.0 0.0 0.00 0.04 0.04 41 1023.2
20260510174141 63 182 0.9 0.9 0.00 0.04 0.04 40 1023.3
20260510173637 63 34 0.9 1.7 0.00 0.04 0.04 42 1023.4
20260510173133 62 155 0.0 0.9 0.00 0.04 0.04 42 1023.6
20260510172629 62 184 0.9 1.7 0.00 0.04 0.04 43 1023.6
20260510172125 62 355 0.9 0.9 0.00 0.04 0.04 44 1023.3
20260510171622 61 201 0.0 0.9 0.00 0.04 0.04 44 1023.3
20260510171120 61 221 0.9 1.7 0.00 0.04 0.04 48 1023.0
20260510170616 60 184 0.0 0.0 0.00 0.04 0.04 44 1023.0
20260510170112 60 34 1.7 1.7 0.00 0.04 0.04 44 1023.2
20260510165608 60 0 0.9 0.9 0.00 0.04 0.04 46 1023.4
20260510165104 59 2 0.9 0.9 0.00 0.04 0.04 46 1023.1
20260510164602 59 172 0.9 0.9 0.00 0.04 0.04 47 1023.3
20260510164058 59 120 0.9 0.9 0.00 0.04 0.04 48 1023.3
20260510163553 59 297 0.0 0.9 0.00 0.04 0.04 49 1023.2
20260510163050 59 197 0.0 0.0 0.00 0.04 0.04 49 1023.4
20260510162545 59 269 0.9 1.7 0.00 0.04 0.04 49 1023.1
20260510162042 59 116 0.0 0.9 0.00 0.04 0.04 49 1023.1
20260510161537 59 194 0.0 0.0 0.00 0.04 0.04 49 1022.9
20260510161035 59 223 0.9 0.9 0.00 0.04 0.04 51 1023.0
20260510160532 59 275 0.9 1.7 0.00 0.04 0.04 52 1022.7
20260510160031 58 174 0.0 0.0 0.00 0.04 0.04 53 1022.5
20260510155528 58 187 0.0 0.9 0.00 0.04 0.04 53 1022.6
20260510155024 58 118 0.9 0.9 0.00 0.04 0.04 54 1022.8
20260510154520 58 47 0.9 1.7 0.00 0.04 0.04 52 1023.0
20260510154020 58 295 0.9 1.7 0.00 0.04 0.04 56 1023.0
20260510153515 57 203 0.9 1.7 0.00 0.04 0.04 55 1022.9
20260510153013 57 189 0.9 0.9 0.00 0.04 0.04 58 1022.8
20260510152510 57 211 0.0 0.9 0.00 0.04 0.04 62 1022.9
20260510152006 58 216 0.0 0.0 0.00 0.04 0.04 66 1022.6
20260510151503 58 202 0.0 0.9 0.00 0.04 0.04 62 1022.9
20260510151000 58 144 0.9 0.9 0.00 0.04 0.04 62 1022.6
20260510150455 57 161 0.9 0.9 0.00 0.04 0.04 62 1022.6
20260510145951 57 201 0.0 0.9 0.00 0.04 0.04 62 1022.4
20260510145448 57 62 0.9 1.7 0.00 0.04 0.04 62 1022.6
20260510144944 57 187 0.0 0.0 0.00 0.04 0.04 65 1022.8
20260510144441 56 159 0.0 0.9 0.00 0.04 0.04 66 1022.8
20260510143937 56 58 1.7 1.7 0.00 0.04 0.04 65 1022.9
20260510143433 56 221 0.0 0.0 0.00 0.04 0.04 74 1023.0
20260510142930 56 183 0.0 0.0 0.00 0.04 0.04 75 1022.9
20260510142427 56 204 0.0 0.0 0.00 0.04 0.04 71 1023.0
20260510141923 55 195 0.0 0.0 0.00 0.04 0.04 70 1023.0
20260510141420 55 50 0.9 1.7 0.00 0.04 0.04 71 1023.1
20260510140918 55 184 0.0 0.0 0.00 0.04 0.04 76 1023.0
20260510140414 54 193 0.0 0.0 0.00 0.04 0.04 76 1022.8
20260510135913 54 191 0.0 0.9 0.00 0.04 0.04 79 1023.0
20260510135409 54 211 0.9 0.9 0.00 0.04 0.04 80 1022.9
20260510134907 54 215 0.0 0.0 0.00 0.04 0.04 80 1022.8
20260510134403 54 189 0.0 0.0 0.05 0.04 0.04 77 1022.6
20260510133859 55 167 0.0 0.9 0.17 0.04 0.04 73 1022.7
20260510133356 56 186 0.0 0.0 0.19 0.03 0.03 71 1022.8
20260510132851 57 205 0.0 0.0 0.07 0.01 0.01 68 1022.5
20260510132349 57 185 0.0 0.0 0.00 0.00 0.00 66 1022.6
20260510131846 57 129 0.0 0.0 0.00 0.00 0.00 62 1022.6
20260510131343 58 201 0.0 0.0 0.00 0.00 0.00 61 1022.4
20260510130840 59 178 0.0 0.9 0.00 0.00 0.00 58 1022.5
20260510130337 59 297 0.9 1.7 0.00 0.00 0.00 57 1022.3
20260510125833 59 96 1.7 1.7 0.00 0.00 0.00 55 1021.8
20260510125329 59 207 0.9 0.9 0.00 0.00 0.00 57 1021.4
20260510124827 59 203 0.9 1.7 0.00 0.00 0.00 56 1021.2
20260510124324 59 24 0.9 0.9 0.00 0.00 0.00 56 1021.3
20260510123819 59 193 0.0 0.0 0.00 0.00 0.00 55 1021.3
20260510123315 59 218 0.9 1.7 0.00 0.00 0.00 58 1021.0
20260510122811 59 223 0.9 1.7 0.00 0.00 0.00 57 1020.7
20260510122307 59 46 0.9 1.7 0.00 0.00 0.00 57 1020.2
20260510121804 59 219 0.0 0.0 0.00 0.00 0.00 60 1020.0
20260510121302 59 189 0.0 0.0 0.00 0.00 0.00 60 1019.8
20260510120759 59 173 0.9 0.9 0.00 0.00 0.00 59 1019.6
20260510120255 59 64 0.9 1.7 0.00 0.00 0.00 60 1019.4
20260510115751 59 71 2.6 3.5 0.00 0.00 0.00 59 1019.1
20260510115249 59 231 1.7 2.6 0.00 0.00 0.00 60 1018.7
20260510114744 59 37 0.9 1.7 0.00 0.00 0.00 61 1018.9
20260510114242 59 154 1.7 1.7 0.00 0.00 0.00 62 1018.5
20260510113737 59 82 0.9 0.9 0.00 0.00 0.00 63 1018.3
20260510113234 59 44 1.7 1.7 0.00 0.00 0.00 63 1018.2
20260510112730 59 182 0.0 0.9 0.00 0.00 0.00 63 1018.1
20260510112227 59 80 0.9 0.9 0.00 0.00 0.00 64 1017.5
20260510111723 59 243 1.7 1.7 0.00 0.00 0.00 63 1017.7
20260510111220 60 49 2.6 2.6 0.00 0.00 0.00 63 1017.6
20260510110720 60 36 1.7 2.6 0.00 0.00 0.00 62 1017.4
20260510110218 60 37 1.7 2.6 0.00 0.00 0.00 61 1017.4
20260510105717 61 72 0.9 0.9 0.00 0.00 0.00 61 1017.4
20260510105217 61 39 1.7 2.6 0.00 0.00 0.00 61 1017.6
20260510104714 61 123 0.9 0.9 0.00 0.00 0.00 62 1017.5
20260510104211 61 143 0.9 0.9 0.00 0.00 0.00 64 1017.5
20260510103708 60 192 0.9 1.7 0.00 0.00 0.00 64 1017.1
20260510103205 60 67 0.9 0.9 0.00 0.00 0.00 64 1017.3
20260510102700 60 17 1.7 2.6 0.00 0.00 0.00 63 1017.3
20260510102156 60 47 1.7 2.6 0.00 0.00 0.00 63 1017.2
20260510101654 60 186 0.9 1.7 0.00 0.00 0.00 64 1017.1
20260510101152 61 178 0.0 0.0 0.00 0.00 0.00 63 1016.6
20260510100647 61 121 0.0 0.0 0.00 0.00 0.00 62 1016.6
20260510100145 61 28 1.7 1.7 0.00 0.00 0.00 60 1016.4
20260510095646 61 83 0.0 0.9 0.00 0.00 0.00 60 1016.6
20260510095141 61 37 0.9 1.7 0.00 0.00 0.00 60 1016.5
20260510094639 61 43 0.9 1.7 0.00 0.00 0.00 61 1016.5
20260510094136 61 24 0.0 0.0 0.00 0.00 0.00 62 1016.1
20260510093632 61 48 0.9 1.7 0.00 0.00 0.00 60 1016.2
20260510093129 62 182 0.0 0.9 0.00 0.00 0.00 60 1016.5
20260510092626 62 174 0.0 0.9 0.00 0.00 0.00 60 1016.4
20260510092121 62 215 0.9 0.9 0.00 0.00 0.00 61 1016.2
20260510091617 62 76 1.7 1.7 0.00 0.00 0.00 60 1016.0
20260510091113 62 160 0.0 0.0 0.00 0.00 0.00 59 1015.9
20260510090611 62 203 0.9 0.9 0.00 0.00 0.00 59 1015.9
20260510090106 62 72 0.9 1.7 0.00 0.00 0.00 61 1015.7
20260510085602 62 213 1.7 2.6 0.00 0.00 0.00 60 1015.8
20260510085057 62 130 0.9 0.9 0.00 0.00 0.00 60 1015.9
20260510084554 62 221 0.9 0.9 0.00 0.00 0.00 62 1015.7
20260510084051 62 22 0.0 0.9 0.00 0.00 0.00 61 1015.8
20260510083547 62 30 0.9 0.9 0.00 0.00 0.00 62 1015.8
20260510083044 62 268 0.9 1.7 0.00 0.00 0.00 61 1016.0
20260510082541 63 216 0.0 0.0 0.00 0.00 0.00 61 1016.0
20260510082036 63 210 0.0 0.0 0.00 0.00 0.00 60 1015.9
20260510081531 63 350 1.7 1.7 0.00 0.00 0.00 60 1015.6
20260510081027 63 85 0.9 0.9 0.00 0.00 0.00 60 1015.7
20260510080526 63 72 0.9 0.9 0.00 0.00 0.00 61 1015.7
20260510080023 62 307 0.9 0.9 0.00 0.00 0.00 65 1015.5
20260510075521 62 186 0.0 0.9 0.00 0.00 0.00 66 1015.2
20260510075017 62 221 0.0 0.0 0.00 0.00 0.00 65 1015.5
20260510074515 62 222 0.0 0.0 0.00 0.00 0.00 64 1015.5
20260510074010 62 202 0.0 0.0 0.00 0.00 0.00 63 1015.4
20260510073507 63 198 0.0 0.0 0.00 0.00 0.00 62 1015.2
20260510073004 63 197 0.0 0.0 0.00 0.00 0.00 62 1015.2
20260510072500 63 193 0.0 0.0 0.00 0.00 0.00 61 1015.3
20260510071955 64 201 0.0 0.0 0.00 0.00 0.00 61 1015.0
20260510071452 64 209 0.9 1.7 0.00 0.00 0.00 61 1014.9
20260510070950 64 216 0.0 0.0 0.00 0.00 0.00 60 1014.9
20260510070447 64 199 0.0 0.9 0.00 0.00 0.00 59 1015.1
20260510065943 65 161 0.0 0.0 0.00 0.00 0.00 58 1015.0
20260510065440 65 175 0.0 0.0 0.00 0.00 0.00 58 1015.1
20260510064936 65 199 0.0 0.0 0.00 0.00 0.00 58 1015.1
20260510064434 66 185 0.0 0.0 0.00 0.00 0.00 57 1014.9
20260510063930 66 178 0.0 0.9 0.00 0.00 0.00 56 1014.8
20260510063426 66 168 0.0 0.9 0.00 0.00 0.00 56 1014.6
20260510062925 66 179 0.0 0.0 0.00 0.00 0.00 57 1014.9
20260510062425 66 178 0.0 0.9 0.00 0.00 0.00 57 1014.7
20260510061920 66 184 0.0 0.0 0.00 0.00 0.00 56 1014.7
20260510061417 67 189 0.0 0.0 0.00 0.00 0.00 56 1014.4
20260510060913 67 191 0.0 0.9 0.00 0.00 0.00 57 1014.3
20260510060410 66 197 0.0 0.0 0.00 0.00 0.00 56 1014.2
20260510055906 66 198 0.0 0.0 0.00 0.00 0.00 57 1014.2
20260510055402 66 208 0.0 0.9 0.00 0.00 0.00 57 1014.2
20260510054900 66 201 0.0 0.9 0.00 0.00 0.00 59 1014.1
20260510054356 66 196 0.0 0.0 0.00 0.00 0.00 58 1013.9
20260510053851 66 210 0.0 0.9 0.00 0.00 0.00 58 1014.0
20260510053347 67 63 0.0 0.9 0.00 0.00 0.00 57 1013.6
20260510052843 67 150 1.7 1.7 0.00 0.00 0.00 56 1013.9
20260510052339 67 179 0.0 0.0 0.00 0.00 0.00 56 1013.7
20260510051835 67 205 0.0 0.9 0.00 0.00 0.00 56 1013.7
20260510051332 68 195 0.0 0.0 0.00 0.00 0.00 57 1013.9
20260510050830 68 197 0.0 0.0 0.00 0.00 0.00 55 1013.8
20260510050326 69 155 0.0 0.9 0.00 0.00 0.00 54 1013.7
20260510045823 69 181 0.0 0.0 0.00 0.00 0.00 53 1013.6
20260510045319 70 179 0.0 0.0 0.00 0.00 0.00 49 1013.3
20260510044817 69 183 0.0 0.9 0.00 0.00 0.00 47 1013.6
20260510044313 69 198 0.0 0.0 0.00 0.00 0.00 50 1013.3
20260510043810 69 169 0.0 0.0 0.00 0.00 0.00 50 1013.6
20260510043306 69 179 0.0 0.0 0.00 0.00 0.00 52 1013.8
20260510042804 69 183 0.0 0.0 0.00 0.00 0.00 51 1013.8
20260510042259 70 183 0.0 0.0 0.00 0.00 0.00 50 1013.6
20260510041755 70 183 0.0 0.0 0.00 0.00 0.00 49 1013.7
20260510041253 70 182 0.0 0.0 0.00 0.00 0.00 51 1013.8
20260510040751 70 165 0.0 0.0 0.00 0.00 0.00 50 1013.7
20260510040248 71 166 0.0 0.0 0.00 0.00 0.00 46 1013.7
20260510035743 71 167 0.0 0.0 0.00 0.00 0.00 43 1013.8
20260510035239 72 178 0.0 0.0 0.00 0.00 0.00 42 1013.6
20260510034735 73 8 1.7 2.6 0.00 0.00 0.00 41 1013.4
20260510034233 73 214 0.0 0.9 0.00 0.00 0.00 39 1013.4
20260510033729 73 214 0.0 0.0 0.00 0.00 0.00 39 1013.0
20260510033227 74 201 0.0 0.0 0.00 0.00 0.00 39 1013.1
20260510032722 74 183 0.0 0.0 0.00 0.00 0.00 37 1012.8
20260510032218 74 180 0.0 0.0 0.00 0.00 0.00 37 1012.8
20260510031713 74 156 0.9 0.9 0.00 0.00 0.00 37 1012.8
20260510031210 74 185 0.0 0.9 0.00 0.00 0.00 37 1012.5
20260510030709 74 216 3.5 3.5 0.00 0.00 0.00 36 1012.5
20260510030208 75 225 2.6 2.6 0.00 0.00 0.00 36 1012.7
20260510025705 75 231 1.7 2.6 0.00 0.00 0.00 37 1012.8
20260510025202 75 210 2.6 3.5 0.00 0.00 0.00 36 1012.7
20260510024659 75 225 3.5 3.5 0.00 0.00 0.00 36 1012.5
20260510024155 75 221 4.3 5.2 0.00 0.00 0.00 35 1012.7
20260510023651 75 178 0.9 0.9 0.00 0.00 0.00 35 1012.5
20260510023148 75 219 3.5 3.5 0.00 0.00 0.00 35 1012.7
20260510022643 76 223 2.6 3.5 0.00 0.00 0.00 36 1012.8
20260510022138 76 214 3.5 3.5 0.00 0.00 0.00 34 1012.7
20260510021634 76 195 3.5 5.2 0.00 0.00 0.00 33 1012.9
20260510021132 77 226 2.6 3.5 0.00 0.00 0.00 32 1012.6
20260510020632 76 219 2.6 2.6 0.00 0.00 0.00 34 1012.7
20260510020127 75 220 4.3 7.0 0.00 0.00 0.00 34 1012.7
20260510015624 75 209 1.7 1.7 0.00 0.00 0.00 37 1012.4
20260510015120 75 215 1.7 2.6 0.00 0.00 0.00 35 1012.2
20260510014615 75 204 3.5 3.5 0.00 0.00 0.00 36 1012.2
20260510014114 75 216 0.9 1.7 0.00 0.00 0.00 38 1012.1
20260510013608 75 208 0.9 1.7 0.00 0.00 0.00 35 1011.8
20260510013104 75 209 0.0 0.0 0.00 0.00 0.00 35 1011.5
20260510012603 76 210 0.9 0.9 0.00 0.00 0.00 35 1011.4
20260510012100 76 212 0.9 0.9 0.00 0.00 0.00 35 1011.1
20260510011559 76 192 2.6 3.5 0.00 0.00 0.00 34 1011.1
20260510011055 77 206 0.0 0.9 0.00 0.00 0.00 34 1010.6
20260510010552 77 216 0.9 1.7 0.00 0.00 0.00 34 1010.4
20260510010049 78 170 0.9 0.9 0.00 0.00 0.00 32 1010.2
20260510005550 78 220 0.9 0.9 0.00 0.00 0.00 31 1010.0
20260510005048 79 142 0.9 1.7 0.00 0.00 0.00 30 1009.9
20260510004545 79 169 0.0 0.9 0.00 0.00 0.00 29 1009.9
20260510004043 80 176 0.0 0.9 0.00 0.00 0.00 28 1009.6
20260510003540 80 168 0.9 1.7 0.00 0.00 0.00 28 1009.4
20260510003035 81 190 0.0 0.0 0.00 0.00 0.00 28 1009.3
20260510002530 81 147 0.9 1.7 0.00 0.00 0.00 27 1009.4
20260510002028 81 105 1.7 2.6 0.00 0.00 0.00 27 1009.3
20260510001525 82 110 2.6 5.2 0.00 0.00 0.00 27 1009.3
20260510001023 82 81 0.9 1.7 0.00 0.00 0.00 27 1009.0
20260510000518 82 202 0.9 0.9 0.00 0.00 0.00 25 1009.3
20260510000015 83 200 0.9 0.9 0.00 0.00 0.00 24 1009.4
20260509235512 83 238 3.5 6.1 0.00 0.00 0.00 24 1009.4
20260509235009 84 202 0.9 0.9 0.00 0.00 0.00 23 1009.4
20260509234505 84 222 1.7 2.6 0.00 0.00 0.00 24 1009.4
20260509234004 85 220 3.5 3.5 0.00 0.00 0.00 24 1009.4
20260509233500 85 157 0.9 0.9 0.00 0.00 0.00 23 1009.4
20260509232956 86 219 3.5 5.2 0.00 0.00 0.00 22 1009.5
20260509232454 86 235 0.0 0.9 0.00 0.00 0.00 23 1009.7
20260509231950 86 208 0.9 1.7 0.00 0.00 0.00 22 1009.5
20260509231447 86 212 3.5 3.5 0.00 0.00 0.00 25 1009.4
20260509230945 86 140 2.6 3.5 0.00 0.00 0.00 21 1009.2
20260509230441 86 199 1.7 2.6 0.00 0.00 0.00 21 1009.1
20260509225937 87 211 1.7 1.7 0.00 0.00 0.00 22 1009.4
20260509225434 87 226 0.0 0.9 0.00 0.00 0.00 23 1009.7
20260509224930 87 231 2.6 3.5 0.00 0.00 0.00 22 1009.3
20260509224425 88 212 1.7 2.6 0.00 0.00 0.00 22 1009.2
20260509223923 87 107 0.9 0.9 0.00 0.00 0.00 23 1009.4
20260509223419 87 211 0.0 0.0 0.00 0.00 0.00 20 1009.4
20260509222917 87 206 0.0 0.9 0.00 0.00 0.00 21 1009.4
20260509222412 87 248 2.6 2.6 0.00 0.00 0.00 22 1009.2
20260509221907 87 135 3.5 5.2 0.00 0.00 0.00 21 1009.2
20260509221405 86 130 0.9 0.9 0.00 0.00 0.00 21 1009.3
20260509220900 88 229 6.1 7.8 0.00 0.00 0.00 21 1009.2
20260509220356 89 225 1.7 1.7 0.00 0.00 0.00 22 1009.2
20260509215852 88 197 0.0 0.0 0.00 0.00 0.00 20 1009.2
20260509215349 87 247 1.7 3.5 0.00 0.00 0.00 25 1009.1
20260509214846 88 225 4.3 5.2 0.00 0.00 0.00 21 1009.1
20260509214343 88 224 2.6 2.6 0.00 0.00 0.00 22 1009.0
20260509213840 88 195 6.1 7.8 0.00 0.00 0.00 20 1009.2
20260509213335 87 224 4.3 6.1 0.00 0.00 0.00 20 1009.1
20260509212833 88 113 2.6 2.6 0.00 0.00 0.00 19 1009.3
20260509212331 89 226 5.2 7.8 0.00 0.00 0.00 21 1009.3
20260509211826 89 216 0.9 1.7 0.00 0.00 0.00 23 1009.6
20260509211322 90 229 3.5 3.5 0.00 0.00 0.00 19 1009.5
20260509210819 89 237 0.0 0.0 0.00 0.00 0.00 19 1009.5
20260509210317 89 149 2.6 5.2 0.00 0.00 0.00 18 1009.7
20260509205817 89 140 1.7 1.7 0.00 0.00 0.00 18 1009.6
20260509205312 89 239 0.9 1.7 0.00 0.00 0.00 19 1010.0
20260509204808 89 139 1.7 1.7 0.00 0.00 0.00 22 1009.6
20260509204304 90 223 1.7 2.6 0.00 0.00 0.00 22 1009.9
20260509203800 91 220 0.0 0.9 0.00 0.00 0.00 22 1010.0
20260509203258 89 211 0.0 0.0 0.00 0.00 0.00 22 1010.1
20260509202754 89 200 0.0 0.9 0.00 0.00 0.00 21 1010.1
20260509202250 89 184 0.9 0.9 0.00 0.00 0.00 19 1009.9
20260509201750 91 219 0.9 1.7 0.00 0.00 0.00 20 1010.4
20260509201247 91 221 0.9 1.7 0.00 0.00 0.00 20 1010.4
20260509200743 89 222 1.7 1.7 0.00 0.00 0.00 24 1010.4
20260509200244 88 311 1.7 2.6 0.00 0.00 0.00 20 1010.4
20260509195740 89 207 0.0 0.0 0.00 0.00 0.00 18 1010.5
20260509195235 87 231 2.6 2.6 0.00 0.00 0.00 26 1010.3
20260509194730 87 199 1.7 1.7 0.00 0.00 0.00 22 1010.8
20260509194227 87 268 5.2 7.0 0.00 0.00 0.00 22 1010.8
20260509193724 88 213 3.5 3.5 0.00 0.00 0.00 19 1011.0
20260509193223 87 258 2.6 3.5 0.00 0.00 0.00 20 1010.8
20260509192720 87 221 0.0 0.9 0.00 0.00 0.00 21 1010.9
20260509192215 87 210 0.9 0.9 0.00 0.00 0.00 21 1011.1
20260509191710 88 197 0.0 0.0 0.00 0.00 0.00 20 1011.1
20260509191207 89 230 0.9 0.9 0.00 0.00 0.00 23 1011.1
20260509190703 87 223 0.9 0.9 0.00 0.00 0.00 22 1011.1
20260509190201 86 224 2.6 3.5 0.00 0.00 0.00 23 1011.2
20260509185658 85 224 3.5 3.5 0.00 0.00 0.00 27 1011.2
20260509185154 85 215 5.2 6.1 0.00 0.00 0.00 22 1011.3
20260509184652 87 217 3.5 5.2 0.00 0.00 0.00 24 1011.3
20260509184148 87 221 1.7 2.6 0.00 0.00 0.00 22 1011.5
20260509183645 86 228 0.9 0.9 0.00 0.00 0.00 21 1011.5
20260509183140 87 207 1.7 5.2 0.00 0.00 0.00 23 1011.4
20260509182636 86 266 5.2 7.0 0.00 0.00 0.00 23 1011.5
20260509182133 87 222 4.3 5.2 0.00 0.00 0.00 22 1011.5
20260509181631 85 256 1.7 1.7 0.00 0.00 0.00 27 1011.5
20260509181129 85 235 7.0 9.6 0.00 0.00 0.00 26 1011.5
20260509180625 85 226 5.2 6.1 0.00 0.00 0.00 25 1011.3